Dewpoint
11 9 7 9 9 6 10 13 17 20 22 24 27 28 30 32 34 38 40 52 54 56 61 67 69 71 73 71 71 70 71 70 71 71 71 71 73 73 72 72 72 73 73 74
17 11 9 9 9 9 7 10 16 20 22 24 34 36 35 36 42 41 42 46 55 59 63 66 69 72 73 72 72 72 72 71 72 74 75 74 75 74 73 74 73 74 75 73
20 16 16 13 13 12 14 12 13 18 23 26 25 30 43 50 51 52 50 48 53 60 63 65 69 73 73 72 72 72 73 73 74 74 74 74 74 75 74 74 75 74 74 74
26 22 19 17 14 13 13 14 14 19 22 29 31 44 54 57 58 58 59 58 55 54 62 65 67 71 73 72 74 74 73 74 74 75 74 74 75 74 76 74 74 74 73 73
33 25 21 18 17 14 15 17 16 18 20 25 35 42 56 57 60 63 63 58 55 52 58 66 68 72 73 72 73 72 72 74 75 75 75 74 74 75 76 75 75 74 74 72
37 30 26 22 19 18 20 18 19 18 22 28 38 37 55 59 59 60 62 64 60 56 62 66 69 70 72 72 72 72 74 75 76 76 76 75 75 76 76 75 75 71 72 71
32 32 30 24 23 21 25 25 22 20 30 37 41 57 60 58 60 60 60 61 63 62 60 61 65 68 72 73 72 73 75 75 76 77 77 77 77 77 75 75 76 74 72 73
36 34 29 27 38 31 36 43 31 38 47 51 58 57 58 59 59 60 60 60 61 63 65 66 67 68 70 73 76 78 76 77 77 77 75 74 76 77 77 76 74 75 75 72
48 47 52 47 48 54 50 53 53 54 54 56 55 56 57 58 58 59 60 62 63 64 67 69 71 70 70 73 75 76 77 76 76 77 76 77 76 76 74 75 74 71 73 71
48 48 53 53 53 52 53 54 53 54 54 53 53 53 54 54 55 57 58 61 63 65 66 67 67 68 71 73 74 75 75 75 76 74 73 71 71 73 70 68 66 66 67 67
50 51 53 51 54 54 54 54 54 54 54 55 53 53 54 56 59 59 60 60 63 65 67 68 69 70 70 69 71 72 71 72 71 70 69 70 69 68 69 69 63 63 64 67
54 51 53 53 54 52 52 52 53 53 54 55 54 57 58 60 62 63 63 65 64 65 65 66 66 68 70 70 68 67 67 63 62 62 65 70 70 68 58 56 54 52 53 62
48 52 50 51 52 52 52 53 52 51 53 56 57 58 60 63 64 63 65 65 65 65 64 65 65 67 67 69 69 69 69 70 70 64 63 65 66 66 64 64 52 53 52 53
49 52 52 50 50 50 51 51 54 52 54 56 57 58 58 61 62 63 63 65 66 65 65 65 66 66 68 67 68 68 69 59 69 69 69 67 65 67 67 66 64 65 54 53
47 49 50 55 53 52 52 52 54 53 54 56 57 57 57 59 62 63 64 64 65 64 65 65 65 65 67 69 68 67 67 68 67 68 67 66 67 68 67 65 64 63 64 55
48 48 47 50 53 54 53 52 52 52 54 56 56 56 56 58 60 61 62 63 61 61 63 64 65 65 66 66 66 65 65 64 65 66 66 65 64 64 64 64 64 63 63 63
51 49 51 51 49 50 52 53 54 54 57 57 56 55 54 55 57 58 59 60 62 62 62 63 64 66 67 66 63 64 63 63 63 63 63 63 63 63 62 61 61 61 61 60
54 53 51 49 51 51 52 54 56 56 58 58 56 54 55 55 58 59 59 60 60 60 61 63 65 65 65 65 65 65 65 65 63 63 63 63 62 62 61 61 61 61 60 56
56 56 55 54 51 51 54 56 56 59 59 57 54 55 57 57 58 58 59 59 59 62 60 62 62 63 62 62 62 61 59 62 63 64 64 61 62 63 61 61 60 60 60 57
55 56 56 56 56 52 56 58 59 59 57 56 56 57 57 58 58 58 59 60 60 59 60 60 63 61 60 60 61 54 54 54 56 58 58 57 60 61 63 58 61 61 63 59
56 57 57 57 56 56 57 60 58 57 56 57 57 58 58 58 59 59 60 56 61 61 59 61 60 60 56 56 56 51 52 54 54 53 54 58 59 61 61 61 62 62 62 63
55 58 57 57 56 58 59 59 58 58 57 57 58 58 58 58 59 59 58 56 57 56 56 54 54 55 54 56 44 43 45 47 46 47 47 49 51 52 56 56 59 60 63 63
56 59 59 58 58 60 59 57 57 57 57 58 58 58 57 52 48 47 47 53 50 51 43 45 52 55 56 49 46 44 43 44 45 44 44 43 43 43 45 49 53 53 54 54
58 59 62 63 63 61 58 58 55 56 57 56 57 56 51 45 44 45 49 50 51 51 47 48 50 54 52 51 50 50 50 49 49 49 48 47 46 47 46 46 45 46 48 49
58 59 63 62 62 61 60 58 55 55 54 55 56 52 49 47 45 45 47 49 52 51 49 52 54 54 52 51 51 51 51 51 50 51 49 49 50 50 48 47 46 46 46 47
60 61 64 62 61 62 62 55 53 48 49 48 49 47 47 49 49 48 50 50 49 49 49 53 50 52 50 53 49 48 47 46 48 49 46 46 54 53 53 54 52 54 52 51
62 56 58 57 59 58 59 60 57 53 47 46 47 47 46 47 48 52 50 49 50 47 45 46 45 45 42 43 43 44 45 49 46 45 44 46 45 46 46 46 45 46 46 45
Lifted_Index
-0 -1 -1 -1 -1 -0 -0 -1 -1 -1 -1 -1 -1 -1 -0 0 1 1 -0 -2 -4 -5 -5 -7 -8 -9 -9 -9 -8 -8 -8 -7 -7 -7 -6 -6 -6 -6 -6 -6 -6 -6 -5 -5
-0 -1 -1 -1 -1 -0 -1 -1 -1 -1 -1 -1 -1 -1 -1 -1 -1 -1 -1 -2 -4 -5 -6 -7 -8 -9 -10 -9 -8 -8 -8 -7 -7 -7 -7 -7 -6 -6 -6 -6 -6 -6 -6 -5
-1 -1 -1 -1 -1 -1 -1 -1 -1 -1 -1 -1 -1 -1 -2 -3 -3 -3 -3 -3 -4 -5 -6 -7 -8 -9 -9 -9 -9 -8 -8 -8 -8 -8 -8 -7 -7 -7 -7 -7 -7 -6 -6 -6
-1 -1 -0 -0 -1 -1 -1 -1 -1 -1 -1 -1 -1 -2 -4 -5 -5 -5 -5 -4 -4 -5 -6 -7 -8 -9 -9 -9 -9 -8 -8 -8 -8 -8 -8 -8 -8 -8 -8 -7 -7 -7 -7 -6
-1 -1 -0 -0 -1 -1 -1 -1 -1 -1 -1 -1 -1 -3 -5 -6 -6 -6 -6 -5 -4 -4 -6 -7 -8 -8 -9 -9 -8 -8 -8 -8 -9 -9 -9 -9 -9 -8 -8 -8 -7 -7 -7 -6
-2 -1 -1 -0 -1 -1 -0 -0 -1 -1 -1 -1 -2 -4 -5 -6 -5 -6 -6 -6 -5 -5 -6 -7 -8 -8 -8 -8 -8 -8 -8 -8 -9 -9 -10 -10 -9 -9 -8 -8 -7 -7 -7 -6
-2 -2 -1 -1 -1 -1 -1 -1 -1 -1 -1 -2 -4 -5 -6 -6 -5 -5 -5 -5 -5 -5 -6 -6 -7 -8 -8 -8 -8 -8 -8 -8 -9 -9 -9 -10 -10 -9 -9 -8 -7 -7 -6 -6
-2 -2 -1 -2 -2 -2 -2 -3 -2 -3 -3 -4 -5 -6 -6 -5 -5 -4 -4 -4 -5 -5 -6 -6 -7 -7 -8 -8 -8 -9 -9 -9 -9 -9 -9 -9 -9 -9 -9 -8 -7 -7 -6 -6
-0 -1 -2 -3 -4 -4 -4 -5 -5 -5 -5 -5 -5 -5 -5 -5 -4 -4 -4 -4 -4 -5 -6 -6 -6 -6 -7 -7 -8 -8 -8 -8 -8 -9 -9 -8 -7 -7 -7 -7 -7 -6 -5 -5
1 -1 -3 -5 -5 -5 -5 -5 -5 -5 -5 -5 -4 -4 -4 -4 -3 -3 -3 -3 -4 -4 -5 -5 -5 -5 -6 -6 -7 -7 -7 -7 -7 -7 -7 -6 -5 -4 -5 -5 -5 -4 -3 -3
-0 -1 -3 -5 -5 -5 -5 -5 -5 -5 -4 -4 -3 -3 -3 -3 -3 -3 -3 -3 -3 -4 -4 -4 -4 -4 -5 -5 -5 -5 -5 -5 -5 -5 -5 -5 -3 -3 -3 -4 -3 -2 -2 -2
-2 -2 -3 -4 -4 -4 -4 -4 -4 -4 -3 -3 -3 -3 -3 -3 -4 -3 -3 -3 -3 -4 -4 -4 -4 -4 -4 -3 -3 -3 -3 -3 -3 -3 -3 -4 -4 -3 -3 -3 -2 -2 -1 -1
-3 -3 -4 -4 -4 -3 -3 -3 -3 -3 -3 -3 -3 -3 -4 -4 -3 -3 -3 -4 -4 -3 -3 -3 -3 -3 -3 -3 -3 -3 -3 -3 -2 -2 -2 -3 -3 -3 -3 -3 -3 -2 -2 -1
-3 -3 -4 -4 -4 -3 -3 -3 -3 -3 -3 -3 -3 -3 -3 -3 -3 -3 -3 -3 -3 -3 -3 -2 -2 -2 -2 -2 -2 -3 -2 -2 -2 -2 -2 -2 -3 -3 -3 -3 -3 -2 -1 -1
-2 -3 -4 -4 -4 -4 -3 -3 -3 -3 -3 -3 -3 -3 -3 -3 -2 -2 -2 -2 -1 -2 -2 -2 -1 -1 -2 -2 -2 -2 -2 -2 -1 -2 -2 -2 -2 -3 -3 -3 -2 -1 -0 0
-2 -2 -3 -3 -4 -4 -4 -4 -3 -3 -3 -3 -3 -2 -2 -2 -1 -1 -1 -1 -0 -0 -1 -1 -1 -1 -1 -2 -2 -2 -2 -2 -1 -1 -2 -2 -2 -2 -2 -1 -1 -0 1 1
-2 -2 -2 -3 -3 -3 -4 -4 -4 -4 -4 -3 -2 -1 -0 -0 -1 -0 -0 -0 -0 -0 -0 -0 -1 -1 -2 -2 -2 -2 -2 -2 -1 -1 -1 -1 -1 -1 -1 -1 -0 0 1 2
-2 -2 -2 -2 -2 -3 -3 -4 -4 -4 -4 -2 -1 -0 0 -0 -0 -0 0 0 -0 -0 0 -0 -1 -1 -2 -2 -2 -2 -2 -2 -2 -1 -1 -1 -1 -1 -1 -1 -1 -0 1 2
-3 -3 -3 -2 -2 -3 -3 -4 -4 -4 -3 -2 -0 0 -0 -0 -0 -0 -0 -0 -0 -0 0 -0 -1 -1 -1 -1 -1 -1 -1 -1 -1 -1 -1 -1 -1 -2 -1 -1 -1 -1 0 1
-3 -3 -3 -3 -3 -3 -3 -4 -4 -3 -2 -1 -0 -0 -1 -0 -0 -0 -0 -0 -1 -0 0 0 -0 -0 -0 0 0 1 1 0 0 -0 -0 -1 -1 -1 -1 -1 -1 -1 -0 0
-3 -3 -4 -3 -3 -3 -4 -4 -3 -2 -1 -1 -1 -1 -1 -0 -0 -0 0 0 0 0 1 1 1 1 1 1 2 2 2 2 2 2 1 1 0 -0 -1 -1 -1 -1 -1 -1
-3 -3 -4 -4 -4 -4 -4 -3 -2 -1 -1 -0 -0 -1 -1 -0 1 1 1 2 2 2 2 3 3 3 3 3 4 4 3 3 3 3 3 3 2 2 1 1 0 -0 -0 -1
-3 -3 -4 -4 -4 -4 -4 -3 -2 -1 -0 -0 -0 -0 0 1 2 3 3 4 4 4 5 5 5 4 4 4 4 4 4 4 4 4 4 4 4 4 3 2 2 1 1 1
-2 -3 -4 -4 -4 -4 -3 -2 -1 -0 0 0 0 0 1 3 3 4 4 4 5 5 5 6 6 5 4 3 3 3 3 3 3 3 3 3 3 3 3 3 3 3 2 2
-3 -3 -4 -4 -4 -3 -2 -1 -0 1 1 1 1 1 2 2 3 3 3 4 4 4 4 4 5 4 3 2 3 3 3 3 3 2 2 2 2 2 2 2 2 3 2 2
-3 -3 -3 -3 -2 -2 -1 -0 1 2 2 2 2 2 2 2 2 2 2 2 3 3 3 3 3 3 3 2 3 3 3 3 2 2 2 2 2 1 1 2 2 2 2 2
-3 -3 -3 -2 -2 -1 -0 0 1 2 3 3 2 2 1 1 2 2 2 2 2 2 2 2 3 3 3 3 3 3 3 2 2 2 2 2 2 2 2 2 2 2 2 1